[Date Prev][Date Next][Thread Prev][Thread Next] - [Date Index][Thread Index][Author Index]
2 LIne ISS Keps 9-22
- Subject: [sarex] 2 LIne ISS Keps 9-22
- From: "Dave Larsen PhD" <doc@xxxxxxxxxxx>
- Date: Wed, 22 Sep 2004 03:11:00 -0700
ISS
1 25544U 98067A 04266.30387069 .00018401 00000-0 15440-3 0 7410
2 25544 51.6350 190.0369 0005500 177.1227 328.9867 15.69974933333577
----
Via the sarex mailing list at AMSAT.ORG courtesy of AMSAT-NA.
To unsubscribe, send "unsubscribe sarex" to Majordomo@amsat.org
AMSAT Home